User: anonymous   Login
Location: Iesi
(43.5167°N, 13.2333°E)
Time: 14:00:19
(UTC+00:00)
Language:

Cosmos 405 - Orbit

View from above orbital plane
View from above orbital plane
View from above satellite
View from above satellite

Ground track
Ground track

The orbit data is extracted from the following two-line orbital elements,

1  5117U 71028A   20294.94263942 +.00001826 +00000-0 +50670-4 0  9997
2  5117 081.2637 351.0959 0008923 244.6706 288.2392 15.36315815700128
Epoch (UTC): 20 October 2020 22:37:24
Eccentricity: 0.0008923
inclination: 81.2637°
perigee height: 451 km
apogee height: 463 km
right ascension of ascending node: 351.0959°
argument of perigee: 244.6706°
revolutions per day: 15.36315815
mean anomaly at epoch: 288.2392°
orbit number at epoch: 70012

The dashed part of the orbit path shows where the satellite is in the earth's shadow,  

DLR